FIN2EG EHAM-EFHK

Flight info

Callsign FIN2EG
Flight time N/A
Altitude 41000
Route ANDIK N873 JUIST DCT DOSUR DCT RASMU DCT ROGMI DCT ALAMI DCT OKEVU DCT EVADI Y370 DIVAM
Aircraft A359/H-SDE2E3GHIJ3J4J5LM1ORWXY/LB1D1

Departure

Time 2026-05-06 19:52
Airport Amsterdam Airport Schiphol (EHAM)

Arrival

Time N/A
Airport Helsinki Vantaa Airport (EFHK)
Time Latitude Longitude Altitude Speed Heading
2026-05-06 19:52 52.49189 4.85914 10098 ft 278 kts 355°
2026-05-06 19:52 52.51185 4.85724 10647 ft 300 kts 358°
2026-05-06 19:53 52.53332 4.86231 11110 ft 324 kts 18°
2026-05-06 19:53 52.55291 4.88167 11905 ft 337 kts 41°
2026-05-06 19:53 52.56868 4.91077 12811 ft 345 kts 50°
2026-05-06 19:53 52.58344 4.94186 13630 ft 354 kts 50°
2026-05-06 19:54 52.59886 4.97448 14419 ft 360 kts 50°
2026-05-06 19:54 52.61436 5.00720 15220 ft 364 kts 50°
2026-05-06 19:54 52.62985 5.03983 16037 ft 369 kts 50°
2026-05-06 19:54 52.64577 5.07329 16890 ft 373 kts 50°
2026-05-06 19:55 52.66195 5.10726 17682 ft 381 kts 50°
2026-05-06 19:55 52.67846 5.14192 18465 ft 387 kts 50°
2026-05-06 19:55 52.69521 5.17713 19167 ft 394 kts 50°
2026-05-06 19:55 52.71219 5.21287 19959 ft 397 kts 51°
2026-05-06 19:56 52.72934 5.24901 20687 ft 403 kts 51°
2026-05-06 19:56 52.74671 5.28565 21447 ft 407 kts 51°
2026-05-06 19:56 52.76429 5.32275 22190 ft 412 kts 51°
2026-05-06 19:56 52.78202 5.36025 22900 ft 417 kts 51°
2026-05-06 19:57 52.79997 5.39819 23608 ft 422 kts 51°
2026-05-06 19:57 52.81789 5.43621 24198 ft 426 kts 51°
2026-05-06 19:57 52.83614 5.47501 24810 ft 430 kts 51°
2026-05-06 19:57 52.85454 5.51424 25424 ft 433 kts 51°
2026-05-06 19:58 52.87314 5.55393 26034 ft 437 kts 51°
2026-05-06 19:58 52.89185 5.59390 26631 ft 441 kts 52°
2026-05-06 19:58 52.91075 5.63434 27222 ft 445 kts 52°
2026-05-06 19:58 52.92979 5.67513 27825 ft 449 kts 52°
2026-05-06 19:59 52.94245 5.70230 28214 ft 451 kts 52°
2026-05-06 19:59 52.96829 5.75783 28983 ft 456 kts 52°
2026-05-06 19:59 52.98773 5.79969 29538 ft 460 kts 52°
2026-05-06 19:59 52.99409 5.81339 29710 ft 461 kts 52°